Location: Ellerstadt
(49.4644°N, 8.2615°E)
Time: 01:40:19
(UTC+00:00)

ISS - Pass Details

Date: 20 May 2021
Orbit: 417 x 422 km, 51.6° (Epoch: 15 June)

Event Time Altitude Azimuth Distance (km) Brightness Sun altitude
Rises 20:53:59 0° 270° (W) 2,364 0.6 -12.9°
Reaches altitude 10° 20:56:06 10° 274° (W) 1,502 -0.4 -13.1°
Maximum altitude 20:59:26 58° 355° (N) 494 -3.1 -13.4°
Drops below altitude 10° 21:02:47 10° 76° (ENE) 1,506 -1.1 -13.7°
Enters shadow 21:04:09 - 79° (E) 2,064 -0.5 -13.8°
